When you browse on this site, cookies collect data to enhance your experience and personalize the content and advertising you see.
Visit our Privacy Policy to learn more. By continuing to use the site, you agree to this use of cookies and data.
  • In Hungary
  • List of Countries
  • For 7 days
  • Water Temperature
  • Weather Map
  • News
  • Weather Widgets
  • user-avatar
    Login

    Hourly Weather Volochagino

    Today, 22 January, Wednesday

    Time Temperature Precipitation Wind Pressure Humidity
    00:00 -3°C° 0 mm 6 mps 728 mmHg 78%
    01:00 -4°C° 0 mm 5 mps 728 mmHg 78%
    02:00 -3°C° 0 mm 4 mps 728 mmHg 81%
    03:00 -3°C° 0 mm 4 mps 727 mmHg 81%
    04:00 -3°C° 0 mm 4 mps 726 mmHg 82%
    05:00 -3°C° 0 mm 4 mps 726 mmHg 82%
    06:00 -3°C° 0.1 mm 4 mps 725 mmHg 85%
    07:00 -3°C° 0.1 mm 4 mps 725 mmHg 88%
    08:00 -3°C° 0 mm 4 mps 725 mmHg 91%
    09:00 -3°C° 0.2 mm 4 mps 724 mmHg 90%
    10:00 -2°C° 0.2 mm 4 mps 724 mmHg 88%
    11:00 -2°C° 0.2 mm 4 mps 723 mmHg 87%
    12:00 -2°C° 0.5 mm 4 mps 723 mmHg 83%
    13:00 -2°C° 0.5 mm 4 mps 723 mmHg 80%
    14:00 -2°C° 0.5 mm 5 mps 723 mmHg 76%
    15:00 -4°C° 0 mm 5 mps 724 mmHg 78%
    16:00 -4°C° 0 mm 4 mps 724 mmHg 79%
    17:00 -5°C° 0 mm 4 mps 724 mmHg 81%
    18:00 -5°C° 0 mm 4 mps 725 mmHg 80%
    19:00 -6°C° 0 mm 5 mps 726 mmHg 79%
    20:00 -6°C° 0 mm 5 mps 726 mmHg 79%
    21:00 -6°C° 0 mm 5 mps 726 mmHg 80%
    22:00 -6°C° 0 mm 5 mps 727 mmHg 80%
    23:00 -6°C° 0 mm 5 mps 727 mmHg 81%

    Tomorrow, 23 January, Thursday

    Time Temperature Precipitation Wind Pressure Humidity
    00:00 -7°C° 0 mm 5 mps 728 mmHg 79%
    01:00 -7°C° 0 mm 5 mps 729 mmHg 77%
    02:00 -8°C° 0 mm 5 mps 730 mmHg 75%
    03:00 -8°C° 0.1 mm 5 mps 730 mmHg 77%
    04:00 -8°C° 0.1 mm 5 mps 730 mmHg 78%
    05:00 -8°C° 0.1 mm 5 mps 730 mmHg 79%
    06:00 -10°C° 0 mm 5 mps 731 mmHg 77%
    07:00 -10°C° 0 mm 5 mps 732 mmHg 75%
    08:00 -10°C° 0 mm 5 mps 733 mmHg 73%
    09:00 -8°C° 0 mm 5 mps 733 mmHg 69%
    10:00 -8°C° 0 mm 5 mps 733 mmHg 65%
    11:00 -7°C° 0 mm 5 mps 733 mmHg 62%
    12:00 -8°C° 0 mm 6 mps 733 mmHg 64%
    13:00 -8°C° 0 mm 6 mps 734 mmHg 66%
    14:00 -6°C° 0 mm 6 mps 734 mmHg 67%
    15:00 -8°C° 0 mm 6 mps 734 mmHg 68%
    16:00 -7°C° 0 mm 5 mps 734 mmHg 69%
    17:00 -7°C° 0 mm 5 mps 734 mmHg 70%
    18:00 -7°C° 0 mm 4 mps 735 mmHg 73%
    19:00 -7°C° 0 mm 3 mps 735 mmHg 75%
    20:00 -6°C° 0 mm 2 mps 735 mmHg 77%
    21:00 -6°C° 0 mm 2 mps 735 mmHg 79%
    22:00 -6°C° 0 mm 2 mps 735 mmHg 82%
    23:00 -6°C° 0 mm 2 mps 735 mmHg 84%

    Day after tomorrow, 24 January, Friday

    Time Temperature Precipitation Wind Pressure Humidity
    00:00 -5°C° 0 mm 2 mps 735 mmHg 86%
    01:00 -6°C° 0 mm 3 mps 735 mmHg 87%
    02:00 -5°C° 0 mm 3 mps 735 mmHg 88%
    03:00 -5°C° 0 mm 3 mps 734 mmHg 88%
    04:00 -5°C° 0 mm 4 mps 733 mmHg 87%
    05:00 -4°C° 0 mm 4 mps 732 mmHg 87%
    06:00 -4°C° 0.1 mm 4 mps 731 mmHg 88%
    07:00 -5°C° 0.1 mm 5 mps 731 mmHg 88%
    08:00 -5°C° 0.1 mm 5 mps 730 mmHg 89%
    09:00 -4°C° 0.3 mm 5 mps 730 mmHg 91%
    10:00 -2°C° 0.3 mm 5 mps 729 mmHg 93%
    11:00 -2°C° 0.3 mm 4 mps 728 mmHg 96%
    12:00 -1°C° 0.1 mm 4 mps 728 mmHg 96%
    13:00 0°C° 0.1 mm 5 mps 727 mmHg 96%
    14:00 0°C° 0.1 mm 5 mps 727 mmHg 96%
    15:00 0°C° 0.1 mm 5 mps 727 mmHg 95%
    16:00 +1°C° 0.1 mm 5 mps 726 mmHg 93%
    17:00 +1°C° 0.1 mm 5 mps 726 mmHg 91%
    18:00 +1°C° 0.2 mm 4 mps 726 mmHg 92%
    19:00 0°C° 0.2 mm 4 mps 726 mmHg 94%
    20:00 0°C° 0.2 mm 4 mps 726 mmHg 96%
    21:00 0°C° 0.2 mm 4 mps 726 mmHg 95%
    22:00 0°C° 0.2 mm 4 mps 726 mmHg 94%
    23:00 0°C° 0.2 mm 4 mps 726 mmHg 93%

    25 January, Saturday

    Time Temperature Precipitation Wind Pressure Humidity
    00:00 -1°C° 0.2 mm 4 mps 726 mmHg 93%
    01:00 -1°C° 0.2 mm 4 mps 726 mmHg 93%
    02:00 -1°C° 0.2 mm 3 mps 726 mmHg 93%
    03:00 -2°C° 0 mm 4 mps 726 mmHg 90%
    04:00 -2°C° 0 mm 4 mps 726 mmHg 87%
    05:00 -2°C° 0 mm 4 mps 726 mmHg 85%
    06:00 -2°C° 0 mm 4 mps 726 mmHg 86%
    07:00 -3°C° 0 mm 4 mps 726 mmHg 88%
    08:00 -4°C° 0 mm 4 mps 726 mmHg 90%
    09:00 -3°C° 0 mm 4 mps 725 mmHg 88%
    10:00 -2°C° 0 mm 5 mps 725 mmHg 85%
    11:00 -2°C° 0 mm 5 mps 725 mmHg 83%
    12:00 -2°C° 0 mm 6 mps 725 mmHg 80%
    13:00 -2°C° 0 mm 6 mps 725 mmHg 77%
    14:00 -2°C° 0 mm 6 mps 724 mmHg 74%
    15:00 -2°C° 0.1 mm 6 mps 725 mmHg 73%
    16:00 -3°C° 0.1 mm 7 mps 725 mmHg 72%
    17:00 -3°C° 0.1 mm 7 mps 725 mmHg 71%
    18:00 -4°C° 0 mm 6 mps 726 mmHg 71%
    19:00 -4°C° 0 mm 6 mps 726 mmHg 72%
    20:00 -5°C° 0 mm 6 mps 727 mmHg 72%
    21:00 -5°C° 0 mm 5 mps 728 mmHg 73%
    22:00 -5°C° 0 mm 5 mps 728 mmHg 74%
    23:00 -5°C° 0 mm 5 mps 729 mmHg 76%

    26 January, Sunday

    Time Temperature Precipitation Wind Pressure Humidity
    00:00 -6°C° 0 mm 5 mps 730 mmHg 76%
    01:00 -6°C° 0 mm 5 mps 731 mmHg 76%
    02:00 -6°C° 0 mm 5 mps 731 mmHg 76%
    03:00 -6°C° 0 mm 5 mps 732 mmHg 77%
    04:00 -5°C° 0 mm 4 mps 733 mmHg 77%
    05:00 -5°C° 0 mm 4 mps 733 mmHg 77%
    06:00 -5°C° 0 mm 4 mps 734 mmHg 79%
    07:00 -5°C° 0 mm 4 mps 735 mmHg 80%
    08:00 -7°C° 0 mm 4 mps 735 mmHg 81%
    09:00 -5°C° 0 mm 3 mps 736 mmHg 78%
    10:00 -5°C° 0 mm 3 mps 737 mmHg 76%
    11:00 -4°C° 0 mm 3 mps 737 mmHg 73%
    12:00 -4°C° 0 mm 3 mps 738 mmHg 72%
    13:00 -2°C° 0 mm 3 mps 738 mmHg 71%
    14:00 -2°C° 0 mm 3 mps 738 mmHg 70%
    15:00 -2°C° 0 mm 2 mps 738 mmHg 72%
    16:00 -3°C° 0 mm 2 mps 738 mmHg 75%
    17:00 -3°C° 0 mm 2 mps 738 mmHg 77%
    18:00 -3°C° 0 mm 2 mps 738 mmHg 78%
    19:00 -3°C° 0 mm 2 mps 738 mmHg 79%
    20:00 -3°C° 0 mm 2 mps 738 mmHg 80%
    21:00 -3°C° 0 mm 2 mps 738 mmHg 85%
    22:00 -3°C° 0 mm 2 mps 738 mmHg 90%
    23:00 -2°C° 0 mm 2 mps 738 mmHg 94%

    27 January, Monday

    Time Temperature Precipitation Wind Pressure Humidity
    00:00 -2°C° 0.1 mm 3 mps 738 mmHg 94%
    01:00 -2°C° 0.1 mm 3 mps 738 mmHg 93%
    02:00 -2°C° 0.1 mm 3 mps 738 mmHg 92%
    03:00 -2°C° 0 mm 3 mps 737 mmHg 93%
    04:00 -1°C° 0 mm 3 mps 737 mmHg 94%
    05:00 -1°C° 0 mm 3 mps 737 mmHg 95%
    06:00 -1°C° 0 mm 3 mps 736 mmHg 95%
    07:00 -1°C° 0 mm 3 mps 736 mmHg 95%
    08:00 -1°C° 0 mm 3 mps 736 mmHg 95%
    09:00 -1°C° 0 mm 3 mps 736 mmHg 95%
    10:00 0°C° 0 mm 3 mps 736 mmHg 95%
    11:00 -1°C° 0 mm 4 mps 736 mmHg 95%
    12:00 -1°C° 0 mm 4 mps 736 mmHg 93%
    13:00 0°C° 0 mm 3 mps 735 mmHg 90%
    14:00 0°C° 0 mm 3 mps 735 mmHg 87%
    15:00 -1°C° 0 mm 3 mps 734 mmHg 89%
    16:00 -1°C° 0 mm 3 mps 734 mmHg 90%
    17:00 -1°C° 0 mm 3 mps 733 mmHg 92%
    18:00 -1°C° 0.2 mm 3 mps 733 mmHg 93%
    19:00 -2°C° 0.2 mm 4 mps 732 mmHg 95%
    20:00 -2°C° 0.2 mm 4 mps 732 mmHg 97%
    21:00 -2°C° 0.3 mm 4 mps 731 mmHg 97%
    22:00 -2°C° 0.3 mm 4 mps 731 mmHg 97%
    23:00 0°C° 0.3 mm 3 mps 730 mmHg 97%
    Show more